Location: Wells
(51.2093°N, 2.6446°W)
Time: 10:55:42
(UTC+00:00)

STRAND 1 - Visible Passes

Search period start: 15 March 2026 00:00
Search period end: 25 March 2026 00:00
Orbit: 761 x 775 km, 98.4° (Epoch: 14 March)

Date Brightness Start Highest point End Pass type
(mag) Time Alt. Az. Time Alt. Az. Time Alt. Az.
15 Mar ? 03:26:11 10° E 03:29:40 19° NE 03:33:09 10° NNE visible
15 Mar ? 05:03:00 10° SSE 05:08:07 85° WSW 05:13:16 10° NNW visible
15 Mar ? 18:46:08 10° N 18:51:09 60° WNW 18:56:07 10° SSW visible
15 Mar ? 20:27:11 10° NNW 20:29:14 12° NW 20:31:17 10° WNW visible
16 Mar ? 02:53:03 10° ENE 02:54:18 11° NE 02:55:31 10° NNE visible
16 Mar ? 04:27:19 10° SE 04:32:15 51° ENE 04:37:12 10° N visible
16 Mar ? 19:50:02 10° N 19:53:49 21° WNW 19:57:34 10° WSW visible
17 Mar ? 03:52:15 10° ESE 03:56:34 28° ENE 04:00:53 10° N visible
17 Mar ? 05:30:26 10° S 05:35:24 51° W 05:40:23 10° NNW visible
17 Mar ? 19:13:33 10° N 19:18:13 38° WNW 19:22:50 10° SW visible
18 Mar ? 03:17:56 10° E 03:21:03 17° NE 03:24:10 10° NNE visible
18 Mar ? 04:54:17 10° SSE 04:59:24 83° ENE 05:04:31 10° NNW visible
18 Mar ? 20:18:01 10° NNW 20:20:38 14° NW 20:23:14 10° W visible
19 Mar ? 04:18:45 10° SE 04:23:34 44° ENE 04:28:23 10° N visible
19 Mar ? 19:41:07 10° N 19:45:10 24° WNW 19:49:12 10° WSW visible
20 Mar ? 03:43:49 10° ESE 03:47:55 25° ENE 03:52:00 10° N visible
20 Mar ? 05:21:35 10° S 05:26:37 60° WSW 05:31:41 10° NNW visible
20 Mar ? 19:04:43 10° N 19:09:31 43° WNW 19:14:17 10° SW visible
21 Mar ? 03:09:45 10° E 03:12:26 15° NE 03:15:07 10° NNE visible
21 Mar ? 04:45:35 10° SSE 04:50:39 72° ENE 04:55:45 10° NNW visible
21 Mar ? 20:08:58 10° NNW 20:12:01 16° NW 20:15:03 10° W visible
22 Mar ? 04:10:11 10° SE 04:14:53 38° ENE 04:19:33 10° N visible
22 Mar ? 19:32:14 10° N 19:36:30 28° WNW 19:40:45 10° WSW visible
23 Mar ? 03:35:26 10° ESE 03:39:16 22° ENE 03:43:05 10° N visible
23 Mar ? 05:12:46 10° S 05:17:51 71° WSW 05:22:57 10° NNW visible
23 Mar ? 18:55:55 10° N 19:00:48 50° WNW 19:05:41 10° SW visible
23 Mar ? 20:37:44 10° NW 20:38:45 11° NW 20:39:47 10° WNW visible
24 Mar ? 03:01:41 10° ENE 03:03:49 13° NE 03:05:57 10° NNE visible
24 Mar ? 04:36:55 10° SSE 04:41:55 61° ENE 04:46:57 10° N visible
24 Mar ? 19:59:58 10° NNW 20:03:23 18° NW 20:06:47 10° W visible
